Total_Precipitation_Accumulation
0.06 0.07 0.09 0.12 0.17 0.21 0.27 0.30 0.37 0.34 0.42 0.47 0.40 0.33 0.27 0.23 0.22 0.22 0.20 0.15 0.12 0.11 0.10 0.11 0.14 0.17 0.25 0.33 0.37 0.44 0.59 0.80 0.91 0.90 0.85 0.84 0.83 0.89 0.87 0.79 0.77 0.81 0.74 0.71
0.09 0.12 0.16 0.19 0.23 0.20 0.18 0.16 0.18 0.25 0.34 0.29 0.27 0.26 0.26 0.24 0.21 0.20 0.16 0.13 0.11 0.10 0.09 0.08 0.08 0.10 0.17 0.27 0.34 0.43 0.55 0.67 0.71 0.76 0.78 0.75 0.70 0.68 0.71 0.73 0.73 0.73 0.68 0.66
0.08 0.18 0.22 0.29 0.26 0.27 0.28 0.22 0.23 0.35 0.37 0.27 0.24 0.19 0.16 0.14 0.13 0.13 0.11 0.09 0.09 0.08 0.08 0.07 0.07 0.10 0.16 0.23 0.29 0.40 0.48 0.53 0.61 0.72 0.74 0.68 0.59 0.63 0.70 0.72 0.71 0.69 0.64 0.60
0.09 0.21 0.38 0.29 0.10 0.08 0.13 0.16 0.16 0.20 0.20 0.18 0.15 0.12 0.09 0.07 0.07 0.07 0.06 0.06 0.06 0.06 0.06 0.05 0.07 0.12 0.16 0.22 0.28 0.39 0.49 0.57 0.62 0.73 0.74 0.69 0.67 0.67 0.68 0.68 0.68 0.69 0.64 0.61
0.10 0.17 0.24 0.16 0.07 0.06 0.09 0.11 0.05 0.08 0.09 0.09 0.07 0.07 0.10 0.06 0.03 0.03 0.04 0.05 0.05 0.04 0.05 0.09 0.11 0.13 0.18 0.26 0.31 0.39 0.50 0.62 0.72 0.80 0.80 0.75 0.73 0.71 0.69 0.67 0.63 0.63 0.65 0.66
0.07 0.16 0.23 0.14 0.09 0.10 0.11 0.22 0.12 0.09 0.08 0.06 0.06 0.14 0.16 0.05 0.01 0.01 0.04 0.08 0.08 0.07 0.10 0.16 0.17 0.18 0.25 0.32 0.41 0.52 0.60 0.69 0.76 0.81 0.84 0.81 0.80 0.78 0.74 0.73 0.66 0.62 0.64 0.67
0.06 0.12 0.15 0.09 0.10 0.11 0.20 0.27 0.08 0.05 0.04 0.04 0.07 0.12 0.09 0.02 0.01 0.02 0.03 0.09 0.12 0.16 0.24 0.25 0.23 0.28 0.36 0.41 0.49 0.55 0.64 0.72 0.81 0.89 0.86 0.83 0.86 0.88 0.86 0.83 0.82 0.75 0.68 0.68
0.10 0.17 0.20 0.10 0.09 0.10 0.12 0.07 0.05 0.04 0.03 0.03 0.04 0.04 0.04 0.03 0.03 0.03 0.05 0.08 0.15 0.26 0.31 0.29 0.33 0.46 0.54 0.56 0.55 0.59 0.69 0.78 0.89 0.96 0.81 0.75 0.91 0.95 0.95 0.95 0.95 0.91 0.85 0.76
0.18 0.20 0.15 0.14 0.13 0.14 0.12 0.08 0.06 0.04 0.03 0.03 0.03 0.03 0.04 0.03 0.04 0.07 0.10 0.12 0.14 0.23 0.29 0.32 0.42 0.59 0.76 0.76 0.69 0.69 0.77 0.88 0.92 0.94 0.98 1.00 0.98 0.99 1.01 1.00 1.02 1.00 0.97 0.91
0.24 0.23 0.16 0.13 0.12 0.10 0.10 0.07 0.05 0.04 0.03 0.03 0.03 0.03 0.03 0.03 0.04 0.08 0.11 0.12 0.14 0.20 0.29 0.39 0.48 0.64 0.79 0.82 0.80 0.83 0.89 0.94 0.98 1.01 1.02 1.07 1.14 1.12 1.08 1.04 1.06 1.07 1.01 0.99
0.20 0.21 0.16 0.10 0.07 0.07 0.07 0.07 0.06 0.05 0.05 0.04 0.03 0.04 0.04 0.04 0.05 0.07 0.09 0.10 0.14 0.23 0.35 0.42 0.49 0.60 0.69 0.74 0.85 0.95 0.99 1.01 1.05 1.07 1.10 1.14 1.16 1.11 1.03 1.00 0.90 0.94 0.96 0.95
0.19 0.13 0.14 0.11 0.07 0.08 0.06 0.05 0.05 0.05 0.04 0.04 0.04 0.04 0.05 0.05 0.06 0.08 0.10 0.12 0.18 0.24 0.32 0.39 0.46 0.56 0.65 0.77 0.92 1.07 1.10 1.03 1.02 1.01 1.05 1.10 1.10 0.96 0.74 0.67 0.61 0.58 0.63 0.66
0.15 0.12 0.13 0.11 0.08 0.08 0.07 0.05 0.05 0.06 0.06 0.05 0.05 0.05 0.05 0.06 0.07 0.09 0.10 0.14 0.21 0.26 0.31 0.37 0.42 0.53 0.65 0.80 0.94 1.04 1.08 1.03 0.97 0.92 0.93 0.93 0.98 1.01 0.92 0.77 0.67 0.60 0.49 0.46
0.13 0.12 0.10 0.09 0.06 0.06 0.06 0.05 0.04 0.04 0.04 0.04 0.05 0.06 0.07 0.08 0.10 0.11 0.14 0.20 0.25 0.28 0.32 0.35 0.41 0.48 0.63 0.87 1.05 1.06 1.00 0.92 0.89 0.89 0.88 0.84 0.86 0.90 0.91 0.95 0.93 0.81 0.60 0.49
0.11 0.11 0.09 0.06 0.05 0.05 0.06 0.06 0.05 0.05 0.05 0.06 0.06 0.07 0.10 0.13 0.15 0.15 0.18 0.24 0.30 0.34 0.37 0.40 0.46 0.49 0.58 0.83 1.09 1.12 1.03 0.91 0.85 0.82 0.82 0.82 0.81 0.81 0.83 0.90 0.95 0.93 0.78 0.66
0.14 0.14 0.12 0.11 0.10 0.09 0.08 0.08 0.08 0.08 0.08 0.09 0.09 0.11 0.12 0.14 0.14 0.15 0.19 0.27 0.37 0.41 0.43 0.49 0.52 0.51 0.58 0.77 0.97 1.06 1.04 0.90 0.84 0.78 0.76 0.80 0.84 0.81 0.79 0.87 0.91 0.90 0.85 0.71
0.19 0.17 0.15 0.14 0.14 0.13 0.12 0.13 0.14 0.14 0.14 0.14 0.14 0.14 0.16 0.17 0.19 0.22 0.25 0.29 0.36 0.39 0.44 0.52 0.54 0.53 0.62 0.80 0.95 0.99 0.99 0.90 0.79 0.73 0.71 0.73 0.78 0.79 0.75 0.80 0.84 0.81 0.73 0.60
0.26 0.25 0.22 0.17 0.15 0.15 0.17 0.19 0.20 0.22 0.22 0.22 0.21 0.23 0.26 0.31 0.36 0.38 0.38 0.38 0.39 0.40 0.42 0.48 0.49 0.51 0.60 0.76 0.92 0.97 0.99 0.96 0.86 0.77 0.72 0.70 0.71 0.75 0.76 0.77 0.77 0.75 0.65 0.51
0.27 0.24 0.23 0.21 0.23 0.25 0.28 0.28 0.29 0.30 0.29 0.29 0.29 0.31 0.34 0.39 0.45 0.47 0.47 0.51 0.56 0.58 0.53 0.52 0.52 0.48 0.52 0.63 0.82 0.94 0.93 0.93 0.87 0.77 0.69 0.67 0.68 0.71 0.76 0.73 0.68 0.68 0.61 0.49
0.31 0.32 0.34 0.35 0.36 0.38 0.37 0.35 0.34 0.32 0.30 0.32 0.36 0.41 0.44 0.46 0.51 0.54 0.57 0.59 0.62 0.68 0.64 0.58 0.50 0.46 0.46 0.57 0.74 0.83 0.88 0.88 0.83 0.74 0.68 0.66 0.66 0.69 0.68 0.59 0.52 0.53 0.54 0.47
0.45 0.51 0.54 0.55 0.52 0.48 0.44 0.41 0.39 0.37 0.34 0.38 0.46 0.51 0.54 0.54 0.56 0.61 0.69 0.69 0.60 0.60 0.59 0.56 0.49 0.46 0.47 0.55 0.67 0.77 0.84 0.84 0.81 0.75 0.69 0.62 0.60 0.61 0.59 0.53 0.47 0.44 0.45 0.44
0.43 0.44 0.45 0.44 0.41 0.37 0.32 0.30 0.29 0.30 0.33 0.38 0.43 0.49 0.57 0.61 0.62 0.60 0.61 0.71 0.69 0.64 0.57 0.54 0.51 0.49 0.51 0.55 0.60 0.72 0.79 0.77 0.73 0.69 0.62 0.56 0.54 0.55 0.52 0.44 0.40 0.36 0.36 0.38
0.35 0.33 0.32 0.29 0.27 0.25 0.22 0.21 0.23 0.28 0.33 0.38 0.45 0.55 0.67 0.73 0.76 0.79 0.73 0.63 0.65 0.59 0.52 0.46 0.45 0.46 0.45 0.46 0.52 0.61 0.66 0.66 0.64 0.61 0.55 0.48 0.45 0.49 0.46 0.36 0.33 0.32 0.33 0.33
0.24 0.21 0.21 0.19 0.19 0.21 0.20 0.18 0.19 0.23 0.27 0.32 0.38 0.49 0.70 0.87 0.85 0.73 0.72 0.65 0.56 0.49 0.42 0.34 0.31 0.34 0.37 0.37 0.41 0.48 0.56 0.58 0.58 0.54 0.49 0.43 0.41 0.45 0.41 0.33 0.29 0.29 0.31 0.30
0.13 0.12 0.12 0.14 0.16 0.18 0.18 0.19 0.21 0.23 0.30 0.38 0.39 0.40 0.57 0.83 0.95 0.79 0.64 0.53 0.50 0.44 0.40 0.35 0.30 0.30 0.29 0.28 0.32 0.39 0.47 0.53 0.55 0.53 0.45 0.42 0.41 0.43 0.39 0.34 0.30 0.30 0.32 0.32
0.10 0.13 0.14 0.16 0.20 0.24 0.27 0.31 0.36 0.41 0.55 0.70 0.67 0.55 0.61 0.71 0.75 0.69 0.60 0.48 0.44 0.44 0.39 0.36 0.34 0.31 0.27 0.25 0.29 0.38 0.42 0.46 0.51 0.51 0.46 0.43 0.42 0.40 0.39 0.39 0.36 0.34 0.33 0.33
0.13 0.17 0.21 0.21 0.21 0.28 0.36 0.43 0.52 0.62 0.80 1.06 1.10 0.87 0.75 0.74 0.68 0.61 0.57 0.51 0.47 0.47 0.42 0.37 0.35 0.32 0.30 0.29 0.31 0.36 0.38 0.39 0.44 0.46 0.44 0.43 0.43 0.44 0.43 0.41 0.41 0.37 0.33 0.30